DW6794 Weather Reports


Display with metric or nautical units.
time (UTC)temp
F
wind
direction
speed
MPH
gust
MPH
rain 1hr
in
rain 24hr
in
rain mn
in
humidity
%
barometer
mb
20150419075335 61 61 0.0 0.0 0.00 0.06 0.00 88 1008.1
20150419074335 61 61 0.0 0.0 0.00 0.06 0.00 88 1008.3
20150419073335 61 61 0.0 0.0 0.00 0.06 0.00 88 1008.5
20150419072334 61 61 0.0 0.0 0.00 0.06 0.00 88 1008.7
20150419071335 61 61 0.0 0.0 0.00 0.06 0.00 88 1008.7
20150419070335 61 61 0.0 0.0 0.00 0.06 0.00 88 1008.9
20150419065335 61 61 0.0 0.0 0.00 0.06 0.00 87 1009.1
20150419064335 61 61 0.0 0.0 0.00 0.06 0.00 87 1009.1
20150419063335 61 61 0.0 0.0 0.00 0.06 0.00 87 1008.9
20150419062335 61 61 0.0 0.0 0.00 0.06 0.00 88 1008.9
20150419061335 61 61 0.0 0.0 0.00 0.06 0.00 87 1009.0
20150419060335 61 61 0.0 0.0 0.00 0.06 0.00 87 1009.0
20150419055336 61 61 0.0 0.0 0.00 0.06 0.00 87 1009.1
20150419054335 61 61 0.0 0.0 0.00 0.06 0.00 87 1009.2
20150419053335 61 61 0.0 0.0 0.00 0.06 0.00 87 1009.3
20150419052335 61 61 0.0 0.0 0.00 0.06 0.00 87 1009.4
20150419051335 61 61 0.0 0.0 0.00 0.06 0.00 87 1009.7
20150419050335 61 61 0.0 0.0 0.00 0.06 0.00 87 1010.0
20150419045335 61 61 0.0 0.0 0.00 0.06 0.00 86 1010.2
20150419044335 61 61 0.0 0.0 0.00 0.06 0.00 86 1010.2
20150419043335 61 61 0.0 0.0 0.00 0.06 0.00 86 1010.2
20150419042335 61 61 0.0 0.0 0.00 0.06 0.00 86 1010.2
20150419041336 62 61 0.0 0.0 0.00 0.06 0.00 86 1010.3
20150419040335 62 61 0.0 0.0 0.00 0.06 0.00 86 1010.3
20150419035336 62 61 0.0 0.0 0.00 0.06 0.06 86 1010.3
20150419034336 62 61 0.0 0.0 0.00 0.06 0.06 86 1010.6
20150419033335 62 61 0.0 0.0 0.01 0.06 0.06 85 1010.7
20150419032335 62 61 0.0 0.0 0.01 0.06 0.06 85 1010.7
20150419031336 62 61 0.0 0.0 0.01 0.06 0.06 85 1010.6
20150419030336 63 61 0.0 0.0 0.01 0.06 0.06 85 1010.8
20150419025336 63 61 0.0 0.0 0.01 0.06 0.06 85 1010.8
20150419024336 63 61 0.0 5.0 0.02 0.06 0.06 85 1010.8
20150419023336 63 61 4.0 6.0 0.01 0.05 0.05 85 1010.9
20150419022336 64 63 2.0 3.0 0.01 0.05 0.05 85 1010.9
20150419021337 64 345 0.0 0.0 0.01 0.05 0.05 84 1010.9
20150419020336 64 345 0.0 0.0 0.01 0.05 0.05 84 1011.1
20150419015336 64 346 0.0 0.0 0.01 0.05 0.05 84 1011.3
20150419014336 65 346 0.0 0.0 0.00 0.04 0.04 84 1011.4
20150419013336 65 345 0.0 0.0 0.00 0.04 0.04 84 1011.6
20150419012336 65 346 0.0 0.0 0.00 0.04 0.04 84 1011.5
20150419011336 65 346 0.0 0.0 0.00 0.04 0.04 84 1011.7
20150419010337 65 345 0.0 0.0 0.00 0.04 0.04 84 1011.3
20150419005336 65 345 0.0 0.0 0.00 0.04 0.04 83 1011.0
20150419004336 66 345 0.0 0.0 0.00 0.04 0.04 83 1010.5
20150419003336 66 346 0.0 0.0 0.00 0.04 0.04 83 1010.2
20150419002336 66 346 0.0 0.0 0.00 0.04 0.04 83 1009.9
20150419001336 67 346 0.0 0.0 0.00 0.04 0.04 83 1009.9
20150419000337 67 346 0.0 0.0 0.00 0.04 0.04 83 1009.9
20150418235336 67 346 0.0 0.0 0.00 0.04 0.04 83 1009.7
20150418234336 67 346 0.0 0.0 0.00 0.04 0.04 82 1009.6
20150418233336 67 345 0.0 0.0 0.00 0.04 0.04 82 1009.2
20150418232336 67 346 0.0 2.0 0.00 0.04 0.04 82 1009.2
20150418231336 68 346 0.0 0.0 0.00 0.04 0.04 82 1009.5
20150418230339 68 346 0.0 0.0 0.00 0.04 0.04 82 1009.7
20150418225337 68 346 0.0 0.0 0.00 0.04 0.04 81 1009.8
20150418224336 68 346 0.0 0.0 0.00 0.04 0.04 81 1009.9
20150418223337 68 346 0.0 1.0 0.00 0.04 0.04 81 1010.1
20150418222337 68 61 0.0 5.0 0.00 0.04 0.04 81 1010.0
20150418221337 68 75 3.0 5.0 0.00 0.04 0.04 81 1009.9
20150418220337 68 75 3.0 3.0 0.00 0.04 0.04 82 1010.0
20150418215337 68 75 2.0 3.0 0.00 0.04 0.04 81 1009.8
20150418214337 68 75 2.0 3.0 0.00 0.04 0.04 81 1009.8
20150418213337 68 75 3.0 3.0 0.00 0.04 0.04 81 1010.1
20150418212337 68 75 0.0 0.0 0.00 0.04 0.04 81 1010.2
20150418211337 68 75 0.0 0.0 0.00 0.04 0.04 81 1009.8
20150418210337 68 75 0.0 0.0 0.00 0.04 0.04 80 1009.8
20150418205336 68 75 0.0 3.0 0.00 0.04 0.04 79 1009.7
20150418204337 68 75 2.0 5.0 0.01 0.04 0.04 79 1009.9
20150418203337 68 53 3.0 3.0 0.04 0.04 0.04 79 1009.8
20150418202337 68 27 0.0 5.0 0.04 0.04 0.04 78 1010.2
20150418201337 68 28 4.0 7.0 0.04 0.04 0.04 77 1010.1
20150418200337 68 28 5.0 7.0 0.04 0.04 0.04 77 1010.2
20150418195337 68 20 2.0 5.0 0.04 0.04 0.04 76 1010.3
20150418194337 68 20 6.0 9.0 0.03 0.03 0.03 75 1010.8
20150418193337 69 29 7.0 12.0 0.00 0.00 0.00 73 1010.7
20150418192337 71 138 7.0 16.0 0.00 0.00 0.00 73 1010.9
20150418191337 71 224 1.0 6.0 0.00 0.00 0.00 72 1010.7
20150418190337 72 241 2.0 8.0 0.00 0.00 0.00 72 1010.7
20150418185337 73 253 5.0 8.0 0.00 0.00 0.00 71 1010.7
20150418184337 74 235 1.0 7.0 0.00 0.00 0.00 71 1010.7
20150418183337 75 57 0.0 1.0 0.00 0.00 0.00 71 1010.7
20150418182337 75 57 0.0 0.0 0.00 0.00 0.00 71 1010.8
20150418181337 75 57 2.0 6.0 0.00 0.00 0.00 71 1010.8
20150418180338 74 58 3.0 6.0 0.00 0.00 0.00 71 1010.7
20150418175337 74 44 4.0 8.0 0.00 0.00 0.00 71 1010.8
20150418174337 74 59 3.0 8.0 0.00 0.00 0.00 72 1011.1
20150418173337 74 29 4.0 12.0 0.00 0.00 0.00 73 1011.1
20150418172337 74 47 5.0 12.0 0.00 0.00 0.00 73 1011.1
20150418171338 74 40 6.0 12.0 0.00 0.00 0.00 74 1011.2
20150418170337 73 51 6.0 8.0 0.00 0.00 0.00 75 1011.3
20150418165337 73 74 4.0 10.0 0.00 0.00 0.00 76 1011.5
20150418164337 73 65 7.0 8.0 0.00 0.00 0.00 77 1011.8
20150418163337 72 30 6.0 12.0 0.00 0.00 0.00 78 1011.9
20150418162337 71 52 6.0 12.0 0.00 0.00 0.00 78 1012.1
20150418161337 71 45 5.0 10.0 0.00 0.00 0.00 79 1012.3
20150418160337 71 71 3.0 9.0 0.00 0.00 0.00 80 1012.1
20150418155337 70 65 5.0 13.0 0.00 0.00 0.00 81 1012.4
20150418154338 70 70 6.0 10.0 0.00 0.00 0.00 81 1012.4
20150418153338 69 22 3.0 7.0 0.00 0.00 0.00 82 1012.8
20150418152337 68 59 2.0 6.0 0.00 0.00 0.00 83 1013.0
20150418151338 68 84 2.0 6.0 0.00 0.00 0.00 83 1013.0
20150418150338 68 113 2.0 3.0 0.00 0.00 0.00 84 1013.1
20150418145338 67 130 1.0 3.0 0.00 0.00 0.00 84 1013.3
20150418144338 66 173 0.0 0.0 0.00 0.00 0.00 85 1013.5
20150418143338 66 188 0.0 0.0 0.00 0.00 0.00 85 1013.5
20150418142337 65 188 0.0 0.0 0.00 0.00 0.00 86 1013.5
20150418141338 65 188 0.0 0.0 0.00 0.00 0.00 86 1013.5
20150418140338 64 188 0.0 0.0 0.00 0.00 0.00 87 1013.6
20150418135338 63 188 0.0 0.0 0.00 0.00 0.00 87 1013.5
20150418134338 63 188 0.0 0.0 0.00 0.00 0.00 87 1013.4
20150418133338 62 188 0.0 0.0 0.00 0.00 0.00 87 1013.6
20150418132338 62 285 0.0 0.0 0.00 0.00 0.00 87 1013.6
20150418131339 61 285 0.0 0.0 0.00 0.00 0.00 88 1013.6
20150418130338 60 284 0.0 0.0 0.00 0.00 0.00 88 1013.7
20150418125338 60 284 0.0 0.0 0.00 0.00 0.00 88 1013.7
20150418124338 58 284 0.0 0.0 0.00 0.00 0.00 88 1013.7
20150418123338 58 284 0.0 0.0 0.00 0.00 0.00 88 1013.7
20150418122338 57 284 0.0 0.0 0.00 0.00 0.00 88 1013.7
20150418121339 56 284 0.0 0.0 0.00 0.00 0.00 88 1013.7
20150418120338 55 284 0.0 0.0 0.00 0.00 0.00 88 1013.7
20150418115339 55 284 0.0 0.0 0.00 0.00 0.00 88 1013.8
20150418114339 54 284 0.0 0.0 0.00 0.00 0.00 88 1013.6
20150418113338 53 284 0.0 0.0 0.00 0.00 0.00 87 1013.3
20150418112339 53 283 0.0 0.0 0.00 0.00 0.00 87 1013.2
20150418111338 52 283 0.0 0.0 0.00 0.00 0.00 87 1013.0
20150418110338 52 283 0.0 0.0 0.00 0.00 0.00 87 1012.9
20150418105339 53 283 0.0 0.0 0.00 0.00 0.00 86 1012.9
20150418104339 53 283 0.0 0.0 0.00 0.00 0.00 86 1013.0
20150418103339 53 283 0.0 0.0 0.00 0.00 0.00 86 1013.2
20150418102338 54 283 0.0 0.0 0.00 0.00 0.00 87 1013.1
20150418101339 54 283 0.0 0.0 0.00 0.00 0.00 86 1013.2
20150418100339 54 283 0.0 0.0 0.00 0.00 0.00 86 1013.1
20150418095338 54 283 0.0 0.0 0.00 0.00 0.00 86 1013.2
20150418094339 54 283 0.0 0.0 0.00 0.00 0.00 86 1013.0
20150418093338 54 283 0.0 0.0 0.00 0.00 0.00 86 1013.1
20150418092339 54 283 0.0 0.0 0.00 0.00 0.00 86 1013.3
20150418091339 54 283 0.0 0.0 0.00 0.00 0.00 86 1013.2
20150418090339 54 283 0.0 0.0 0.00 0.00 0.00 86 1013.2
20150418085339 54 283 0.0 0.0 0.00 0.00 0.00 86 1013.3
20150418084339 54 283 0.0 0.0 0.00 0.00 0.00 85 1013.3
20150418083339 54 283 0.0 0.0 0.00 0.00 0.00 85 1013.3
20150418082340 54 283 0.0 0.0 0.00 0.00 0.00 85 1013.2
20150418081339 55 283 0.0 0.0 0.00 0.00 0.00 85 1013.0
20150418080339 55 283 0.0 0.0 0.00 0.00 0.00 85 1012.9